This demonstration page uses our WeatherBlox Daily Observations layout. Learn more.

Left ArrowRight Arrow

41.86663, -103.66717

Hourly Observations for September 24, 2022

Temp ( °F °C ) Dew Point ( °F °C ) Humidity (%) Winds ( mph kmh ) Pressure ( in mb ) Visibility ( mi km ) Precip ( " mm )
12:53 am 00:53 Clear 46 7.8 40 4.4 79 79 NW 7 11 30.01 1016 10 16 0.00 0.00
1:53 am 01:53 Clear 45 7.2 40 4.4 82 82 NNW 6 9 30.01 1016 10 16 0.00 0.00
2:53 am 02:53 Clear 45 7.2 39 3.9 80 80 NW 8 13 30.01 1016 10 16 0.00 0.00
3:53 am 03:53 Clear 46 7.8 38 3.3 73 73 Calm 30.02 1017 10 16 0.00 0.00
4:53 am 04:53 Clear 43 6.1 38 3.3 82 82 NW 7 11 30.03 1017 10 16 0.00 0.00
5:53 am 05:53 Clear 45 7.2 37 2.8 74 74 NNW 10 17 30.04 1017 10 16 0.00 0.00
6:53 am 06:53 Sunny 45 7.2 36 2.2 70 70 N 8 13 30.06 1018 10 16 0.00 0.00
7:53 am 07:53 Sunny 49 9.4 38 3.3 66 66 NNW 6 9 30.09 1019 10 16 0.00 0.00
8:53 am 08:53 Sunny 57 13.9 39 3.9 51 51 NW 5 7 30.09 1019 10 16 0.00 0.00
9:53 am 09:53 Sunny 62 16.7 36 2.2 38 38 NW 8 13 30.10 1019 10 16 0.00 0.00
10:53 am 10:53 Sunny 70 21.1 36 2.2 29 29 WNW 8 13 30.09 1019 10 16 0.00 0.00
11:53 am 11:53 Sunny 75 23.9 35 1.7 23 23 WNW 7 11 30.06 1018 10 16 0.00 0.00
12:53 pm 12:53 Sunny 77 25 34 1.1 21 21 W 7 11 30.04 1017 10 16 0.00 0.00
1:53 pm 13:53 Sunny 80 26.7 32 0 17 17 WNW 10 17 30.02 1017 10 16 0.00 0.00
2:53 pm 14:53 Sunny 83 28.3 31 -0.6 15 15 NW 15 24 30.00 1016 10 16 0.00 0.00
3:53 pm 15:53 Sunny 82 27.8 28 -2.2 14 14 WNW 17 28 30.00 1016 10 16 0.00 0.00
4:53 pm 16:53 Sunny 82 27.8 31 -0.6 16 16 NW 13 20 30.01 1016 10 16 0.00 0.00
5:53 pm 17:53 Sunny 77 25 33 0.6 20 20 N 13 20 30.03 1017 10 16 0.00 0.00
6:53 pm 18:53 Clear 69 20.6 36 2.2 30 30 NNE 10 17 30.08 1019 10 16 0.00 0.00
7:53 pm 19:53 Clear 65 18.3 36 2.2 34 34 N 8 13 30.13 1020 10 16 0.00 0.00
8:53 pm 20:53 Clear 62 16.7 36 2.2 38 38 W 3 6 30.16 1021 10 16 0.00 0.00
9:53 pm 21:53 Clear 64 17.8 36 2.2 35 35 N 6 9 30.18 1022 10 16 0.00 0.00
10:53 pm 22:53 Clear 56 13.3 37 2.8 49 49 W 3 6 30.20 1023 10 16 0.00 0.00
11:53 pm 23:53 Clear 52 11.1 39 3.9 61 61 VRB 3 6 30.21 1023 10 16 0.00 0.00

Powered by AerisWeather